,,,PA_Meas_PMT16A,,PR_Meas_QMR101_102,,RH_Meas_QMH101,,SR_Meas_QMS101,,TA_Meas_QMH101,,GenWind,,GenWind,
date,time,status,PA,status,PR,status,RH,status,SR,status,TA,status,DirAvg,status,SpdAvg,
2009-10-25, 00:00:04,VALID,1002.88,VALID,0,VALID,92.3934,VALID,0,VALID,23.6434,VALID,342,VALID,0.471094,
2009-10-25, 00:01:04,VALID,1002.89,VALID,0,VALID,92.5307,VALID,0.100563,VALID,23.6044,VALID,342,VALID,0.35625,
2009-10-25, 00:02:04,VALID,1002.9,VALID,0,VALID,92.7748,VALID,0.100563,VALID,23.585,VALID,342,VALID,0.542188,
2009-10-25, 00:03:04,VALID,1002.93,VALID,0,VALID,92.9655,VALID,0,VALID,23.546,VALID,351,VALID,0.672266,
2009-10-25, 00:04:04,VALID,1002.93,VALID,0,VALID,93.1105,VALID,0.100563,VALID,23.5266,VALID,351,VALID,0.627734,
2009-10-25, 00:05:04,VALID,1002.97,VALID,0,VALID,93.1486,VALID,0.100563,VALID,23.5071,VALID,351,VALID,0.452344,
2009-10-25, 00:06:04,VALID,1002.98,VALID,0,VALID,93.202,VALID,0.100563,VALID,23.4877,VALID,349,VALID,0.519531,
2009-10-25, 00:07:04,VALID,1003.02,VALID,0,VALID,93.1791,VALID,0.100563,VALID,23.4682,VALID,348,VALID,0.464063,
2009-10-25, 00:08:04,VALID,1003,VALID,0,VALID,92.9961,VALID,0.100563,VALID,23.4877,VALID,348,VALID,0.541406,
2009-10-25, 00:09:04,VALID,1003.04,VALID,0,VALID,92.9121,VALID,0,VALID,23.4877,VALID,348,VALID,0.473047,
2009-10-25, 00:10:04,VALID,1003.08,VALID,0,VALID,92.7824,VALID,0.100563,VALID,23.5266,VALID,345,VALID,0.661719,
2009-10-25, 00:11:04,VALID,1003.07,VALID,0,VALID,92.462,VALID,0.100563,VALID,23.585,VALID,348,VALID,0.448438,
2009-10-25, 00:12:04,VALID,1003.09,VALID,0,VALID,92.0501,VALID,0.100563,VALID,23.6841,VALID,348,VALID,0.413672,
2009-10-25, 00:13:04,VALID,1003.12,VALID,0,VALID,91.6229,VALID,0,VALID,23.723,VALID,355,VALID,0.985156,
2009-10-25, 00:14:04,VALID,1003.11,VALID,0,VALID,91.188,VALID,0,VALID,23.8203,VALID,358,VALID,0.674609,
2009-10-25, 00:15:04,VALID,1003.15,VALID,0,VALID,90.6616,VALID,0,VALID,23.9177,VALID,344,VALID,0.502344,
2009-10-25, 00:16:04,VALID,1003.12,VALID,0,VALID,89.9521,VALID,0,VALID,24.0539,VALID,355,VALID,0.842578,
2009-10-25, 00:17:04,VALID,1003.1,VALID,0,VALID,89.2045,VALID,0,VALID,24.1902,VALID,350,VALID,0.824609,
2009-10-25, 00:18:04,VALID,1003.1,VALID,0,VALID,88.5332,VALID,0,VALID,24.307,VALID,351,VALID,0.859375,
2009-10-25, 00:19:04,VALID,1003.1,VALID,0,VALID,87.961,VALID,0,VALID,24.383,VALID,354,VALID,0.822266,
2009-10-25, 00:20:04,VALID,1003.05,VALID,0,VALID,87.6635,VALID,0,VALID,24.4433,VALID,347,VALID,0.909766,
2009-10-25, 00:21:04,VALID,1003.08,VALID,0,VALID,87.4575,VALID,0,VALID,24.5212,VALID,355,VALID,0.758594,
2009-10-25, 00:22:04,VALID,1003.09,VALID,0,VALID,87.3583,VALID,0,VALID,24.5212,VALID,353,VALID,0.827734,
2009-10-25, 00:23:04,VALID,1003.09,VALID,0,VALID,87.343,VALID,0,VALID,24.5212,VALID,355,VALID,0.605859,
2009-10-25, 00:24:04,VALID,1003.07,VALID,0,VALID,87.5567,VALID,0,VALID,24.4822,VALID,358,VALID,0.572266,
2009-10-25, 00:25:04,VALID,1003.06,VALID,0,VALID,87.7321,VALID,0,VALID,24.422,VALID,347,VALID,0.3875,
2009-10-25, 00:26:04,VALID,1003.08,VALID,0,VALID,87.8389,VALID,0,VALID,24.4238,VALID,347,VALID,0.288672,
2009-10-25, 00:27:04,VALID,1003.01,VALID,0,VALID,87.9534,VALID,0,VALID,24.3849,VALID,347,VALID,0.202734,
2009-10-25, 00:28:04,VALID,1003.02,VALID,0,VALID,87.961,VALID,0,VALID,24.3654,VALID,347,VALID,0,
2009-10-25, 00:29:04,VALID,1003,VALID,0,VALID,87.9762,VALID,0,VALID,24.3441,VALID,347,VALID,0.427344,
2009-10-25, 00:30:04,VALID,1003,VALID,0,VALID,87.8618,VALID,0,VALID,24.3849,VALID,346,VALID,0.558203,
2009-10-25, 00:31:04,VALID,1002.99,VALID,0,VALID,87.694,VALID,0,VALID,24.4025,VALID,347,VALID,0.666016,
2009-10-25, 00:32:04,VALID,1002.98,VALID,0,VALID,87.8008,VALID,0,VALID,24.4043,VALID,344,VALID,0.55,
2009-10-25, 00:33:04,VALID,1002.98,VALID,0,VALID,88.0602,VALID,0,VALID,24.3265,VALID,350,VALID,0.401563,
2009-10-25, 00:34:04,VALID,1002.99,VALID,0,VALID,88.3653,VALID,0,VALID,24.2486,VALID,350,VALID,0.417969,
2009-10-25, 00:35:04,VALID,1002.93,VALID,0,VALID,88.6552,VALID,0,VALID,24.1884,VALID,350,VALID,0.439453,
2009-10-25, 00:36:04,VALID,1002.92,VALID,0,VALID,88.9756,VALID,0,VALID,24.1318,VALID,350,VALID,0.235547,
2009-10-25, 00:37:05,VALID,1002.94,VALID,0,VALID,89.3037,VALID,0,VALID,24.0345,VALID,350,VALID,0.383594,
2009-10-25, 00:38:05,VALID,1002.93,VALID,0,VALID,89.647,VALID,0,VALID,23.9566,VALID,350,VALID,0.618359,
2009-10-25, 00:39:05,VALID,1002.96,VALID,0,VALID,89.9674,VALID,0,VALID,23.9177,VALID,350,VALID,0.451172,
2009-10-25, 00:40:05,VALID,1002.95,VALID,0,VALID,90.1886,VALID,0,VALID,23.8787,VALID,350,VALID,0.591406,
2009-10-25, 00:41:05,VALID,1002.92,VALID,0,VALID,90.4251,VALID,0,VALID,23.7796,VALID,335,VALID,0.506641,
2009-10-25, 00:42:05,VALID,1002.95,VALID,0,VALID,90.6616,VALID,0,VALID,23.7814,VALID,4,VALID,0.526563,
2009-10-25, 00:43:05,VALID,1002.92,VALID,0,VALID,90.7837,VALID,0,VALID,23.7814,VALID,357,VALID,0.544141,
2009-10-25, 00:44:05,VALID,1002.9,VALID,0,VALID,90.7684,VALID,0,VALID,23.7619,VALID,357,VALID,0.417578,
2009-10-25, 00:45:05,VALID,1002.9,VALID,0,VALID,90.8676,VALID,0,VALID,23.7425,VALID,357,VALID,0.532031,
2009-10-25, 00:46:05,VALID,1002.89,VALID,0,VALID,90.9591,VALID,0,VALID,23.7425,VALID,353,VALID,0.658984,
2009-10-25, 00:47:05,VALID,1002.89,VALID,0,VALID,91.0507,VALID,0,VALID,23.7035,VALID,353,VALID,0.531641,
2009-10-25, 00:48:05,VALID,1002.86,VALID,0,VALID,91.0965,VALID,0,VALID,23.6841,VALID,349,VALID,0.722656,
2009-10-25, 00:49:05,VALID,1002.89,VALID,0,VALID,91.0736,VALID,0,VALID,23.723,VALID,346,VALID,0.453906,
2009-10-25, 00:50:05,VALID,1002.89,VALID,0,VALID,90.776,VALID,0,VALID,23.7619,VALID,347,VALID,0.691016,
2009-10-25, 00:51:05,VALID,1002.88,VALID,0,VALID,90.4099,VALID,0,VALID,23.8203,VALID,353,VALID,0.596875,
2009-10-25, 00:52:05,VALID,1002.88,VALID,0,VALID,90.0742,VALID,0,VALID,23.8593,VALID,356,VALID,0.364844,
2009-10-25, 00:53:05,VALID,1002.9,VALID,0,VALID,89.9216,VALID,0,VALID,23.8982,VALID,356,VALID,0.315234,
2009-10-25, 00:54:05,VALID,1002.89,VALID,0,VALID,89.8148,VALID,0,VALID,23.9177,VALID,356,VALID,0,
2009-10-25, 00:55:05,VALID,1002.94,VALID,0,VALID,89.7309,VALID,0,VALID,23.9177,VALID,356,VALID,0,
2009-10-25, 00:56:05,VALID,1002.9,VALID,0,VALID,89.6165,VALID,0,VALID,23.9584,VALID,356,VALID,0,
2009-10-25, 00:57:05,VALID,1002.91,VALID,0,VALID,89.4715,VALID,0.100563,VALID,23.9353,VALID,356,VALID,0,
2009-10-25, 00:58:05,VALID,1002.89,VALID,0,VALID,89.2426,VALID,0,VALID,23.9761,VALID,348,VALID,0.359375,
2009-10-25, 00:59:05,VALID,1002.87,VALID,0,VALID,88.6781,VALID,0,VALID,24.1142,VALID,334,VALID,0.283203,
2009-10-25, 01:00:05,VALID,1002.88,VALID,0,VALID,88.2661,VALID,0,VALID,24.13,VALID,334,VALID,0.448047,
2009-10-25, 01:01:05,VALID,1002.89,VALID,0,VALID,88.2738,VALID,0,VALID,24.1884,VALID,334,VALID,0.230859,
2009-10-25, 01:02:05,VALID,1002.9,VALID,0,VALID,87.9457,VALID,0,VALID,24.2486,VALID,334,VALID,0.294531,
2009-10-25, 01:03:05,VALID,1002.9,VALID,0,VALID,87.6024,VALID,0,VALID,24.2662,VALID,346,VALID,0.56875,
2009-10-25, 01:04:05,VALID,1002.88,VALID,0,VALID,87.2134,VALID,0,VALID,24.3459,VALID,337,VALID,0.694531,
2009-10-25, 01:05:05,VALID,1002.86,VALID,0,VALID,86.8014,VALID,0,VALID,24.4043,VALID,335,VALID,0.402344,
2009-10-25, 01:06:05,VALID,1002.83,VALID,0,VALID,86.3055,VALID,0,VALID,24.4628,VALID,340,VALID,0.491797,
2009-10-25, 01:07:05,VALID,1002.83,VALID,0,VALID,86.0995,VALID,0,VALID,24.5406,VALID,351,VALID,0.272656,
2009-10-25, 01:08:05,VALID,1002.81,VALID,0,VALID,85.741,VALID,0,VALID,24.6185,VALID,351,VALID,0.248828,
2009-10-25, 01:09:05,VALID,1002.81,VALID,0,VALID,85.3595,VALID,0,VALID,24.6361,VALID,350,VALID,0.130469,
2009-10-25, 01:10:05,VALID,1002.81,VALID,0,VALID,85.2604,VALID,0,VALID,24.6964,VALID,318,VALID,0.151172,
2009-10-25, 01:11:05,VALID,1002.79,VALID,0,VALID,85.1154,VALID,0,VALID,24.7353,VALID,318,VALID,0.173047,
2009-10-25, 01:12:05,VALID,1002.81,VALID,0,VALID,85.5198,VALID,0,VALID,24.7353,VALID,318,VALID,0,
2009-10-25, 01:13:05,VALID,1002.78,VALID,0,VALID,85.6189,VALID,0,VALID,24.7353,VALID,318,VALID,0,
2009-10-25, 01:14:05,VALID,1002.77,VALID,0,VALID,85.8325,VALID,0,VALID,24.7159,VALID,318,VALID,0,
2009-10-25, 01:15:05,VALID,1002.76,VALID,0,VALID,86.0614,VALID,0,VALID,24.6769,VALID,318,VALID,0.231641,
2009-10-25, 01:16:05,VALID,1002.74,VALID,0,VALID,86.6488,VALID,0,VALID,24.599,VALID,318,VALID,0.163672,
2009-10-25, 01:17:05,VALID,1002.75,VALID,0,VALID,86.8624,VALID,0,VALID,24.5212,VALID,318,VALID,0,
2009-10-25, 01:18:05,VALID,1002.69,VALID,0,VALID,87.1828,VALID,0,VALID,24.4822,VALID,318,VALID,0.130469,
2009-10-25, 01:19:05,VALID,1002.7,VALID,0,VALID,87.3888,VALID,0,VALID,24.4665,VALID,318,VALID,0.196875,
2009-10-25, 01:20:05,VALID,1002.69,VALID,0,VALID,87.4117,VALID,0,VALID,24.3849,VALID,318,VALID,0.298828,
2009-10-25, 01:21:05,VALID,1002.66,VALID,0,VALID,87.3965,VALID,0,VALID,24.3654,VALID,318,VALID,0.278906,
2009-10-25, 01:22:05,VALID,1002.64,VALID,0,VALID,87.7245,VALID,0,VALID,24.3459,VALID,337,VALID,0.603125,
2009-10-25, 01:23:05,VALID,1002.64,VALID,0,VALID,87.8618,VALID,0,VALID,24.3265,VALID,340,VALID,0.0316406,
2009-10-25, 01:24:05,VALID,1002.64,VALID,0,VALID,88.1517,VALID,0,VALID,24.307,VALID,340,VALID,0.282031,
2009-10-25, 01:25:05,VALID,1002.63,VALID,0,VALID,88.3272,VALID,0,VALID,24.2699,VALID,340,VALID,0.336328,
2009-10-25, 01:26:05,VALID,1002.61,VALID,0,VALID,88.5026,VALID,0,VALID,24.2504,VALID,340,VALID,0.317578,
2009-10-25, 01:27:05,VALID,1002.57,VALID,0,VALID,88.7849,VALID,0,VALID,24.2115,VALID,340,VALID,0.446484,
2009-10-25, 01:28:05,VALID,1002.53,VALID,0,VALID,89.1282,VALID,0,VALID,24.1531,VALID,340,VALID,0,
2009-10-25, 01:29:05,VALID,1002.52,VALID,0,VALID,89.4028,VALID,0,VALID,24.0734,VALID,340,VALID,0,
2009-10-25, 01:30:05,VALID,1002.55,VALID,0,VALID,89.6775,VALID,0,VALID,24.0345,VALID,340,VALID,0,
2009-10-25, 01:31:05,VALID,1002.54,VALID,0,VALID,89.914,VALID,0,VALID,23.9548,VALID,340,VALID,0,
2009-10-25, 01:32:05,VALID,1002.55,VALID,0,VALID,90.181,VALID,0,VALID,23.9177,VALID,340,VALID,0.239063,
2009-10-25, 01:33:05,VALID,1002.54,VALID,0,VALID,90.3336,VALID,0,VALID,23.9177,VALID,340,VALID,0.31875,
2009-10-25, 01:34:05,VALID,1002.57,VALID,0,VALID,90.3641,VALID,0,VALID,23.8982,VALID,304,VALID,0.499609,
2009-10-25, 01:35:05,VALID,1002.57,VALID,0,VALID,90.3717,VALID,0,VALID,23.9195,VALID,292,VALID,0.491797,
2009-10-25, 01:36:05,VALID,1002.56,VALID,0,VALID,90.4022,VALID,0,VALID,23.8593,VALID,290,VALID,0.318359,
2009-10-25, 01:37:05,VALID,1002.55,VALID,0,VALID,90.4556,VALID,0,VALID,23.8398,VALID,290,VALID,0.08125,
2009-10-25, 01:38:05,VALID,1002.53,VALID,0,VALID,90.5548,VALID,0,VALID,23.8203,VALID,290,VALID,0.154687,
2009-10-25, 01:39:05,VALID,1002.51,VALID,0,VALID,90.5548,VALID,0,VALID,23.8009,VALID,290,VALID,0,
2009-10-25, 01:40:05,VALID,1002.51,VALID,0,VALID,90.654,VALID,0,VALID,23.7832,VALID,290,VALID,0,
2009-10-25, 01:41:05,VALID,1002.5,VALID,0,VALID,90.7913,VALID,0,VALID,23.723,VALID,290,VALID,0,
2009-10-25, 01:42:05,VALID,1002.51,VALID,0,VALID,90.9973,VALID,0,VALID,23.6841,VALID,290,VALID,0,
2009-10-25, 01:43:05,VALID,1002.52,VALID,0,VALID,91.2185,VALID,0.100563,VALID,23.6239,VALID,290,VALID,0,
2009-10-25, 01:44:05,VALID,1002.5,VALID,0,VALID,91.4321,VALID,0.100563,VALID,23.585,VALID,290,VALID,0,
2009-10-25, 01:45:05,VALID,1002.48,VALID,0,VALID,91.6305,VALID,0,VALID,23.5266,VALID,290,VALID,0,
2009-10-25, 01:46:05,VALID,1002.47,VALID,0,VALID,91.8441,VALID,0.100563,VALID,23.5089,VALID,290,VALID,0,
2009-10-25, 01:47:05,VALID,1002.45,VALID,0,VALID,92.0119,VALID,0,VALID,23.4275,VALID,290,VALID,0,
2009-10-25, 01:48:05,VALID,1002.46,VALID,0,VALID,92.1721,VALID,0,VALID,23.3904,VALID,290,VALID,0,
2009-10-25, 01:49:05,VALID,1002.45,VALID,0,VALID,92.2942,VALID,0,VALID,23.3727,VALID,290,VALID,0,
2009-10-25, 01:50:05,VALID,1002.41,VALID,0,VALID,92.3857,VALID,0,VALID,23.3337,VALID,290,VALID,0,
2009-10-25, 01:51:05,VALID,1002.44,VALID,0,VALID,92.5765,VALID,0,VALID,23.2931,VALID,290,VALID,0,
2009-10-25, 01:52:05,VALID,1002.39,VALID,0,VALID,92.6451,VALID,0.100563,VALID,23.2948,VALID,290,VALID,0,
2009-10-25, 01:53:05,VALID,1002.42,VALID,0,VALID,92.7443,VALID,0.100563,VALID,23.2754,VALID,290,VALID,0,
2009-10-25, 01:54:05,VALID,1002.4,VALID,0,VALID,92.8969,VALID,0.100563,VALID,23.2152,VALID,290,VALID,0.0660156,
2009-10-25, 01:55:05,VALID,1002.38,VALID,0,VALID,93.0113,VALID,0.100563,VALID,23.1957,VALID,290,VALID,0,
2009-10-25, 01:56:05,VALID,1002.4,VALID,0,VALID,93.1563,VALID,0,VALID,23.1763,VALID,290,VALID,0,
2009-10-25, 01:57:05,VALID,1002.38,VALID,0,VALID,93.3088,VALID,0.100563,VALID,23.1763,VALID,290,VALID,0,
2009-10-25, 01:58:05,VALID,1002.38,VALID,0,VALID,93.3775,VALID,0,VALID,23.1374,VALID,290,VALID,0,
2009-10-25, 01:59:05,VALID,1002.38,VALID,0,VALID,93.4462,VALID,0,VALID,23.1586,VALID,290,VALID,0,
2009-10-25, 02:00:05,VALID,1002.4,VALID,0,VALID,93.5072,VALID,0,VALID,23.1568,VALID,290,VALID,0,
2009-10-25, 02:01:05,VALID,1002.38,VALID,0,VALID,93.5148,VALID,0,VALID,23.1603,VALID,290,VALID,0,
2009-10-25, 02:02:05,VALID,1002.36,VALID,0,VALID,93.5682,VALID,0,VALID,23.1391,VALID,290,VALID,0.388281,
2009-10-25, 02:03:05,VALID,1002.41,VALID,0,VALID,93.5911,VALID,0,VALID,23.1391,VALID,290,VALID,0.347656,
2009-10-25, 02:04:05,VALID,1002.38,VALID,0,VALID,93.5835,VALID,0,VALID,23.1002,VALID,290,VALID,0.392188,
2009-10-25, 02:05:05,VALID,1002.38,VALID,0,VALID,93.6292,VALID,0,VALID,23.1002,VALID,310,VALID,0.314063,
2009-10-25, 02:06:05,VALID,1002.38,VALID,0,VALID,93.6445,VALID,0,VALID,23.0807,VALID,310,VALID,0,
2009-10-25, 02:07:05,VALID,1002.41,VALID,0,VALID,93.7284,VALID,0,VALID,23.0807,VALID,310,VALID,0.394531,
2009-10-25, 02:08:05,VALID,1002.43,VALID,0,VALID,93.8047,VALID,0,VALID,23.0807,VALID,310,VALID,0.01875,
2009-10-25, 02:09:05,VALID,1002.45,VALID,0,VALID,93.8734,VALID,0,VALID,23.1197,VALID,310,VALID,0.000390625,
2009-10-25, 02:10:05,VALID,1002.44,VALID,0,VALID,93.8963,VALID,0,VALID,23.1391,VALID,310,VALID,0.376172,
2009-10-25, 02:11:05,VALID,1002.45,VALID,0,VALID,93.8963,VALID,0,VALID,23.1568,VALID,287,VALID,0.641797,
2009-10-25, 02:12:05,VALID,1002.46,VALID,0,VALID,93.8886,VALID,0,VALID,23.1957,VALID,282,VALID,0.0679687,
2009-10-25, 02:13:05,VALID,1002.46,VALID,0,VALID,93.7666,VALID,0,VALID,23.2754,VALID,282,VALID,0,
2009-10-25, 02:14:05,VALID,1002.48,VALID,0,VALID,93.614,VALID,0,VALID,23.3143,VALID,282,VALID,0.00234375,
2009-10-25, 02:15:05,VALID,1002.46,VALID,0,VALID,93.4919,VALID,0,VALID,23.3744,VALID,283,VALID,0.0671875,
2009-10-25, 02:16:05,VALID,1002.47,VALID,0,VALID,93.3088,VALID,0,VALID,23.3921,VALID,291,VALID,0.2125,
2009-10-25, 02:17:05,VALID,1002.44,VALID,0,VALID,92.9961,VALID,0,VALID,23.4487,VALID,292,VALID,0.423438,
2009-10-25, 02:18:05,VALID,1002.44,VALID,0,VALID,92.7138,VALID,0,VALID,23.5302,VALID,292,VALID,0.0113281,
2009-10-25, 02:19:05,VALID,1002.44,VALID,0,VALID,92.4239,VALID,0,VALID,23.5673,VALID,295,VALID,0.173828,
2009-10-25, 02:20:05,VALID,1002.41,VALID,0,VALID,92.0653,VALID,0,VALID,23.6452,VALID,295,VALID,0.0078125,
2009-10-25, 02:21:05,VALID,1002.4,VALID,0,VALID,91.722,VALID,0,VALID,23.7035,VALID,295,VALID,0.284375,
2009-10-25, 02:22:05,VALID,1002.4,VALID,0,VALID,91.2948,VALID,0,VALID,23.7601,VALID,292,VALID,0.689453,
2009-10-25, 02:23:05,VALID,1002.39,VALID,0,VALID,90.654,VALID,0,VALID,23.8593,VALID,286,VALID,0.792578,
2009-10-25, 02:24:05,VALID,1002.38,VALID,0,VALID,89.9979,VALID,0,VALID,23.9761,VALID,298,VALID,0.542578,
2009-10-25, 02:25:05,VALID,1002.36,VALID,0,VALID,89.4563,VALID,0,VALID,24.0345,VALID,298,VALID,0.140625,
2009-10-25, 02:26:05,VALID,1002.31,VALID,0,VALID,89.1511,VALID,0,VALID,24.0929,VALID,306,VALID,0.408984,
2009-10-25, 02:27:05,VALID,1002.32,VALID,0,VALID,88.8841,VALID,0,VALID,24.1123,VALID,297,VALID,0.357031,
2009-10-25, 02:28:05,VALID,1002.28,VALID,0,VALID,88.701,VALID,0,VALID,24.1513,VALID,297,VALID,0.135547,
2009-10-25, 02:29:05,VALID,1002.24,VALID,0,VALID,88.5637,VALID,0,VALID,24.1707,VALID,312,VALID,0.397656,
2009-10-25, 02:30:05,VALID,1002.25,VALID,0,VALID,88.4645,VALID,0,VALID,24.1707,VALID,351,VALID,0.648047,
2009-10-25, 02:31:05,VALID,1002.21,VALID,0,VALID,88.4645,VALID,0,VALID,24.1123,VALID,359,VALID,0.598828,
2009-10-25, 02:32:05,VALID,1002.17,VALID,0,VALID,88.4721,VALID,0,VALID,23.9584,VALID,9,VALID,0.570313,
2009-10-25, 02:33:05,VALID,1002.14,VALID,0,VALID,88.9985,VALID,0,VALID,23.8221,VALID,9,VALID,0.403125,
2009-10-25, 02:34:05,VALID,1002.12,VALID,0,VALID,89.7233,VALID,0,VALID,23.7035,VALID,9,VALID,0.287109,
2009-10-25, 02:35:05,VALID,1002.1,VALID,0,VALID,90.0894,VALID,0,VALID,23.6257,VALID,9,VALID,0.264062,
2009-10-25, 02:36:05,VALID,1002.07,VALID,0,VALID,90.4556,VALID,0,VALID,23.5266,VALID,9,VALID,0,
2009-10-25, 02:37:05,VALID,1002.06,VALID,0,VALID,90.7379,VALID,0,VALID,23.5107,VALID,9,VALID,0,
2009-10-25, 02:38:05,VALID,1002.07,VALID,0,VALID,91.0659,VALID,0,VALID,23.4505,VALID,9,VALID,0.178516,
2009-10-25, 02:39:05,VALID,1002.03,VALID,0,VALID,91.2872,VALID,0,VALID,23.3921,VALID,9,VALID,0.170312,
2009-10-25, 02:40:05,VALID,1002.02,VALID,0,VALID,91.5161,VALID,0,VALID,23.3727,VALID,9,VALID,0,
2009-10-25, 02:41:05,VALID,1002.04,VALID,0,VALID,91.7602,VALID,0,VALID,23.3337,VALID,9,VALID,0,
2009-10-25, 02:42:05,VALID,1002.04,VALID,0,VALID,92.0348,VALID,0,VALID,23.3143,VALID,9,VALID,0.140625,
2009-10-25, 02:43:05,VALID,1002.05,VALID,0,VALID,92.1187,VALID,0,VALID,23.2931,VALID,9,VALID,0.00429688,
2009-10-25, 02:44:05,VALID,1002.04,VALID,0,VALID,92.1492,VALID,0,VALID,23.3143,VALID,324,VALID,0.163281,
2009-10-25, 02:45:05,VALID,1002.04,VALID,0,VALID,92.1492,VALID,0,VALID,23.3355,VALID,324,VALID,0.248828,
2009-10-25, 02:46:05,VALID,1002.05,VALID,0,VALID,92.2484,VALID,0,VALID,23.3355,VALID,327,VALID,0.284375,
2009-10-25, 02:47:05,VALID,1002.01,VALID,0,VALID,92.1492,VALID,0,VALID,23.3532,VALID,336,VALID,0.128906,
2009-10-25, 02:48:05,VALID,1002.01,VALID,0,VALID,91.9433,VALID,0,VALID,23.3921,VALID,336,VALID,0,
2009-10-25, 02:49:05,VALID,1002.02,VALID,0,VALID,91.8212,VALID,0,VALID,23.3921,VALID,336,VALID,0,
2009-10-25, 02:50:05,VALID,1002.05,VALID,0,VALID,91.8517,VALID,0,VALID,23.4116,VALID,336,VALID,0,
2009-10-25, 02:51:05,VALID,1002.03,VALID,0,VALID,91.8365,VALID,0,VALID,23.4311,VALID,336,VALID,0,
2009-10-25, 02:52:05,VALID,1002.01,VALID,0,VALID,91.7373,VALID,0,VALID,23.4293,VALID,336,VALID,0.0828125,
2009-10-25, 02:53:05,VALID,1002,VALID,0,VALID,91.661,VALID,0,VALID,23.4505,VALID,336,VALID,0,
2009-10-25, 02:54:05,VALID,1001.99,VALID,0,VALID,91.5695,VALID,0,VALID,23.4098,VALID,336,VALID,0,
2009-10-25, 02:55:05,VALID,1001.99,VALID,0,VALID,91.5313,VALID,0,VALID,23.4505,VALID,336,VALID,0,
2009-10-25, 02:56:05,VALID,1001.98,VALID,0,VALID,91.5542,VALID,0,VALID,23.4311,VALID,336,VALID,0.311328,
2009-10-25, 02:57:05,VALID,1001.96,VALID,0,VALID,91.6152,VALID,0,VALID,23.4311,VALID,336,VALID,0.310156,
2009-10-25, 02:58:05,VALID,1001.97,VALID,0,VALID,91.6457,VALID,0,VALID,23.4523,VALID,356,VALID,0.525,
2009-10-25, 02:59:05,VALID,1001.97,VALID,0,VALID,91.5084,VALID,0,VALID,23.4505,VALID,7,VALID,0.279297,
2009-10-25, 03:00:05,VALID,1001.96,VALID,0,VALID,91.394,VALID,0,VALID,23.4505,VALID,7,VALID,0.271094,
2009-10-25, 03:01:05,VALID,1001.96,VALID,0,VALID,91.3787,VALID,0,VALID,23.47,VALID,354,VALID,0.779297,
2009-10-25, 03:02:05,VALID,1001.99,VALID,0,VALID,91.0278,VALID,0,VALID,23.5673,VALID,350,VALID,0.905859,
2009-10-25, 03:03:05,VALID,1002.01,VALID,0,VALID,90.2802,VALID,0,VALID,23.6646,VALID,338,VALID,0.548047,
2009-10-25, 03:04:05,VALID,1002.03,VALID,0,VALID,89.2426,VALID,0,VALID,23.8398,VALID,331,VALID,0.615625,
2009-10-25, 03:05:05,VALID,1002.01,VALID,0,VALID,88.5026,VALID,0,VALID,23.9548,VALID,348,VALID,0.260938,
2009-10-25, 03:06:05,VALID,1002.02,VALID,0,VALID,88.0144,VALID,0,VALID,24.0734,VALID,358,VALID,0.462891,
2009-10-25, 03:07:05,VALID,1002.03,VALID,0,VALID,87.4575,VALID,0,VALID,24.1707,VALID,343,VALID,0.578516,
2009-10-25, 03:08:05,VALID,1002.04,VALID,0,VALID,86.9845,VALID,0,VALID,24.2681,VALID,345,VALID,0.3625,
2009-10-25, 03:09:05,VALID,1002.02,VALID,0,VALID,86.8777,VALID,0,VALID,24.307,VALID,345,VALID,0.326562,
2009-10-25, 03:10:05,VALID,1002.02,VALID,0,VALID,86.9464,VALID,0,VALID,24.2875,VALID,345,VALID,0.0191406,
2009-10-25, 03:11:05,VALID,1002,VALID,0,VALID,86.8624,VALID,0,VALID,24.2486,VALID,328,VALID,0.454297,
2009-10-25, 03:12:05,VALID,1002.02,VALID,0,VALID,86.8624,VALID,0,VALID,24.2681,VALID,328,VALID,0.473047,
2009-10-25, 03:13:05,VALID,1001.99,VALID,0,VALID,86.8548,VALID,0,VALID,24.2468,VALID,328,VALID,0.244141,
2009-10-25, 03:14:05,VALID,1002.02,VALID,0,VALID,86.9082,VALID,0,VALID,24.2273,VALID,328,VALID,0.406641,
2009-10-25, 03:15:05,VALID,1001.97,VALID,0,VALID,87.221,VALID,0.100563,VALID,24.1884,VALID,28,VALID,0.262891,
2009-10-25, 03:16:05,VALID,1001.98,VALID,0,VALID,87.549,VALID,0.100563,VALID,24.1105,VALID,43,VALID,0.0351563,
2009-10-25, 03:17:05,VALID,1001.97,VALID,0,VALID,87.7855,VALID,0,VALID,24.0503,VALID,43,VALID,0.116797,
2009-10-25, 03:18:05,VALID,1001.96,VALID,0,VALID,87.9228,VALID,0,VALID,24.0503,VALID,44,VALID,0.48125,
2009-10-25, 03:19:04,VALID,1001.95,VALID,0,VALID,88.0907,VALID,0,VALID,24.0326,VALID,44,VALID,0,
2009-10-25, 03:20:04,VALID,1001.97,VALID,0,VALID,88.2738,VALID,0.100563,VALID,23.9742,VALID,44,VALID,0,
2009-10-25, 03:21:04,VALID,1001.99,VALID,0,VALID,88.3577,VALID,0.100563,VALID,23.9548,VALID,44,VALID,0,
2009-10-25, 03:22:04,VALID,1002.02,VALID,0,VALID,88.6171,VALID,0.100563,VALID,23.8946,VALID,44,VALID,0,
2009-10-25, 03:23:04,VALID,1002.07,VALID,0,VALID,88.8841,VALID,0.100563,VALID,23.838,VALID,44,VALID,0.00703125,
2009-10-25, 03:24:04,VALID,1002.08,VALID,0,VALID,89.2426,VALID,0,VALID,23.7778,VALID,44,VALID,0.0488281,
2009-10-25, 03:25:04,VALID,1002.11,VALID,0,VALID,89.502,VALID,0.100563,VALID,23.7389,VALID,44,VALID,0,
2009-10-25, 03:26:04,VALID,1002.11,VALID,0,VALID,89.6165,VALID,0.100563,VALID,23.7,VALID,44,VALID,0.0738281,
2009-10-25, 03:27:04,VALID,1002.13,VALID,0,VALID,89.769,VALID,0.100563,VALID,23.6823,VALID,44,VALID,0,
2009-10-25, 03:28:04,VALID,1002.12,VALID,0,VALID,89.9598,VALID,0,VALID,23.6239,VALID,44,VALID,0.0636719,
2009-10-25, 03:29:04,VALID,1002.13,VALID,0,VALID,89.9674,VALID,0,VALID,23.6257,VALID,44,VALID,0,
2009-10-25, 03:30:04,VALID,1002.11,VALID,0,VALID,90.1123,VALID,0,VALID,23.5868,VALID,44,VALID,0,
2009-10-25, 03:31:04,VALID,1002.14,VALID,0,VALID,90.2954,VALID,0,VALID,23.5478,VALID,356,VALID,0.101953,
2009-10-25, 03:32:04,VALID,1002.14,VALID,0,VALID,90.4251,VALID,0,VALID,23.4877,VALID,356,VALID,0.289453,
2009-10-25, 03:33:04,VALID,1002.15,VALID,0,VALID,90.6158,VALID,0,VALID,23.47,VALID,356,VALID,0.241406,
2009-10-25, 03:34:04,VALID,1002.13,VALID,0,VALID,90.7455,VALID,0,VALID,23.4116,VALID,356,VALID,0.337891,
2009-10-25, 03:35:04,VALID,1002.17,VALID,0,VALID,90.9363,VALID,0,VALID,23.332,VALID,356,VALID,0,
2009-10-25, 03:36:04,VALID,1002.17,VALID,0,VALID,91.249,VALID,0,VALID,23.2736,VALID,356,VALID,0,
2009-10-25, 03:37:04,VALID,1002.22,VALID,0,VALID,91.5695,VALID,0,VALID,23.2754,VALID,356,VALID,0,
2009-10-25, 03:38:04,VALID,1002.21,VALID,0,VALID,91.7449,VALID,0,VALID,23.2559,VALID,356,VALID,0.179688,
2009-10-25, 03:39:04,VALID,1002.26,VALID,0,VALID,91.9356,VALID,0,VALID,23.2347,VALID,339,VALID,0.324609,
2009-10-25, 03:40:04,VALID,1002.26,VALID,0,VALID,91.989,VALID,0,VALID,23.2364,VALID,321,VALID,0.583984,
2009-10-25, 03:41:04,VALID,1002.26,VALID,0,VALID,92.134,VALID,0,VALID,23.2152,VALID,293,VALID,0.382422,
2009-10-25, 03:42:04,VALID,1002.26,VALID,0,VALID,92.0501,VALID,0,VALID,23.2152,VALID,284,VALID,0.653516,
2009-10-25, 03:43:04,VALID,1002.25,VALID,0,VALID,92.0272,VALID,0,VALID,23.2559,VALID,284,VALID,0.174219,
2009-10-25, 03:44:04,VALID,1002.25,VALID,0,VALID,91.8975,VALID,0,VALID,23.2541,VALID,274,VALID,0.0378906,
2009-10-25, 03:45:04,VALID,1002.25,VALID,0,VALID,91.7907,VALID,0,VALID,23.2736,VALID,276,VALID,0.425391,
2009-10-25, 03:46:04,VALID,1002.26,VALID,0,VALID,91.7297,VALID,0,VALID,23.3143,VALID,285,VALID,0.391016,